Regional Weather Roundup
Issued by NWS Little Rock, AR

Home | Current Version | Previous Version | Text Only | Print | Product List | Glossary Off
Versions: 1 2 3 4 5 6 7 8 9 10 11 12 13 14 15 16 17 18 19 20 21 22 23 24 25 26 27 28 29 30 31 32 33 34 35 36 37 38 39 40 41 42 43 44 45 46 47 48 49 50

960
ASUS44 KLZK 291205
RWRLZK

WEATHER ROUNDUP FOR ARKANSAS
NATIONAL WEATHER SERVICE LITTLE ROCK AR
700 AM CDT FRI APR 29 2016

NOTE: "FAIR" INDICATES FEW OR NO CLOUDS BELOW 12,000 FEET WITH NO
SIGNIFICANT WEATHER AND/OR OBSTRUCTIONS TO VISIBILITY.

ARZ001-003-010-029-291300-
NORTHWEST ARKANSAS

CITY           SKY/WX    TMP DP  RH WIND       PRES   REMARKS
FAYETTEVILLE   LGT RAIN  57  49  74 VRB3      29.94R
6HR MIN TEMP:  54; 6HR MAX TEMP:  58; 6HR PCP: TRACE;

FORT SMITH     HVY RAIN  61  55  81 NE16      29.85F
6HR MIN TEMP:  60; 6HR MAX TEMP:  66; 6HR PCP:  0.54;

HARRISON       CLOUDY    55  48  77 NE3       29.98R
6HR MIN TEMP:  51; 6HR MAX TEMP:  61;

BENTONVILLE    CLOUDY    61  45  55 NE9       29.94S
ROGERS         TSTM      59  48  67 NE12      29.95R
6HR MIN TEMP:  59; 6HR MAX TEMP:  64; 6HR PCP: TRACE;

SILOAM SPGS    CLOUDY    57  45  62 CALM      29.95R THUNDER
6HR MIN TEMP:  57; 6HR MAX TEMP:  63; 6HR PCP:  0.03;

HIGHFILL       LGT RAIN  60  49  66 NE8       29.93R
6HR MIN TEMP:  58; 6HR MAX TEMP:  62; 6HR PCP: TRACE;

SPRINGDALE     LGT RAIN  59  46  63 E8G14     29.95R
$$

ARZ004-005-016-291300-
NORTH CENTRAL ARKANSAS

CITY           SKY/WX    TMP DP  RH WIND       PRES   REMARKS
BATESVILLE     CLOUDY    55  50  82 CALM      29.94F
6HR MIN TEMP:  52; 6HR MAX TEMP:  57;

FLIPPIN        CLOUDY   N/A N/A N/A CALM      29.94R
MTN HOME       CLOUDY    55  48  77 NE9G17    29.94F
6HR MIN TEMP:  55; 6HR MAX TEMP:  62;

$$

ARZ040-041-291300-
WEST CENTRAL ARKANSAS

CITY           SKY/WX    TMP DP  RH WIND       PRES   REMARKS
MENA           CLOUDY    63  63 100 CALM      29.76F THUNDER
MOUNT IDA      LGT RAIN  62  60  93 E5        29.76F
6HR MIN TEMP:  58; 6HR MAX TEMP:  69; 6HR PCP:  0.55;

$$

ARZ009-017-025-026-028-291300-
NORTHEAST ARKANSAS

CITY           SKY/WX    TMP DP  RH WIND       PRES   REMARKS
CORNING          N/A     59  54  82 NE10      30.01R
JONESBORO      CLOUDY    60  54  80 NE14      29.96R
6HR MIN TEMP:  54; 6HR MAX TEMP:  61;

NEWPORT        CLOUDY    61  54  77 NE12      29.94F
6HR MIN TEMP:  59; 6HR MAX TEMP:  65;

WALNUT RIDGE   CLOUDY    59  50  72 NE16      29.97S
6HR MIN TEMP:  57; 6HR MAX TEMP:  63;

BLYTHEVILLE    CLOUDY    61  54  77 E9        29.97R
6HR MIN TEMP:  57; 6HR MAX TEMP:  63;

$$

ARZ022-023-033-042-044-291300-
CENTRAL ARKANSAS

CITY           SKY/WX    TMP DP  RH WIND       PRES   REMARKS
LITTLE ROCK    CLOUDY    69  52  54 E7        29.86R
6HR MIN TEMP:  63; 6HR MAX TEMP:  69;

N LITTLE ROCK    N/A     66  52  61 E9        29.84S
6HR MIN TEMP:  65; 6HR MAX TEMP:  67;

JACKSONVILLE   CLOUDY    66  52  61 NE10      29.84F
6HR MIN TEMP:  59; 6HR MAX TEMP:  67;

SEARCY         CLOUDY    63  54  72 NE14      29.87F
6HR MIN TEMP:  57; 6HR MAX TEMP:  63;

HOT SPRINGS    TSTM      68  58  70 E10       29.80F
6HR MIN TEMP:  63; 6HR MAX TEMP:  70; 6HR PCP:  0.01;

RUSSELLVILLE   TSTM      65  51  60 NE6       29.86R
6HR MIN TEMP:  58; 6HR MAX TEMP:  69; 6HR PCP:  0.03;

$$

ARZ036-291300-
EAST ARKANSAS

CITY           SKY/WX    TMP DP  RH WIND       PRES   REMARKS
WEST MEMPHIS   CLOUDY    65  53  65 E3        29.94R
6HR MIN TEMP:  60; 6HR MAX TEMP:  65;

$$

ARZ050-053-066-070-073-291300-
SOUTHWEST ARKANSAS

CITY           SKY/WX    TMP DP  RH WIND       PRES   REMARKS
ARKADELPHIA    TSTM      68  68 100 VRB5      29.79R FOG
6HR MIN TEMP:  61; 6HR MAX TEMP:  69; 6HR PCP:  0.02;

CAMDEN         CLOUDY    72  66  83 SE12G21   29.78S
TEXARKANA      CLOUDY    72  69  90 SE9       29.74S
6HR MIN TEMP:  67; 6HR MAX TEMP:  72; 6HR PCP:  0.11;

EL DORADO      CLOUDY    72  70  93 SE12      29.79S
6HR MIN TEMP:  63; 6HR MAX TEMP:  72;

DE QUEEN       TSTM      65  64  97 VRB6      29.75R VSB 1/2
6HR MIN TEMP:  64; 6HR MAX TEMP:  69;

$$

ARZ056-057-069-291300-
SOUTHEAST ARKANSAS

CITY           SKY/WX    TMP DP  RH WIND       PRES   REMARKS
PINE BLUFF     CLOUDY    67  58  72 SE7       29.86R
6HR MIN TEMP:  62; 6HR MAX TEMP:  68;

STUTTGART      CLOUDY    68  52  56 MISG      29.85F
6HR MIN TEMP:  64; 6HR MAX TEMP:  68;

MONTICELLO     CLOUDY    69  65  86 CALM      29.85S
6HR MIN TEMP:  62; 6HR MAX TEMP:  69;


$$






USA.gov is the U.S. government's official web portal to all federal, state and local government web resources and services.